TimeEDT,TemperatureF,Dew PointF,Humidity,Sea Level PressureIn,VisibilityMPH,Wind Direction,Wind SpeedMPH,Gust SpeedMPH,PrecipitationIn,Events,Conditions,WindDirDegrees,DateUTC
12:13 AM,75.2,73.4,94,30.03,7.0,North,8.1,-,0.01,Rain-Thunderstorm,Light Thunderstorms and Rain,10,2013-08-24 04:13:00
12:54 AM,75.0,72.0,90,30.05,7.0,NNE,5.8,-,0.02,Thunderstorm,Overcast,30,2013-08-24 04:54:00
1:09 AM,73.4,71.6,94,30.05,8.0,NNE,6.9,-,N/A,,Scattered Clouds,20,2013-08-24 05:09:00
1:54 AM,73.0,70.0,90,30.04,7.0,NNE,6.9,-,N/A,,Clear,20,2013-08-24 05:54:00
2:54 AM,73.0,70.0,90,30.04,8.0,NNE,6.9,-,N/A,,Partly Cloudy,20,2013-08-24 06:54:00
3:36 AM,73.4,71.6,94,30.05,7.0,NNE,5.8,-,N/A,,Mostly Cloudy,20,2013-08-24 07:36:00
3:54 AM,73.0,71.1,93,30.06,8.0,North,4.6,-,N/A,,Overcast,10,2013-08-24 07:54:00
4:54 AM,72.0,69.1,91,30.07,8.0,North,9.2,-,N/A,,Overcast,10,2013-08-24 08:54:00
5:54 AM,71.1,68.0,90,30.10,10.0,North,9.2,-,N/A,,Overcast,10,2013-08-24 09:54:00
6:18 AM,69.8,66.2,88,30.12,10.0,NE,11.5,-,N/A,,Overcast,40,2013-08-24 10:18:00
6:54 AM,70.0,66.0,87,30.13,10.0,NNE,8.1,-,N/A,,Overcast,30,2013-08-24 10:54:00
7:04 AM,69.8,64.4,83,30.14,10.0,NNE,10.4,-,N/A,,Overcast,30,2013-08-24 11:04:00
7:54 AM,70.0,63.0,78,30.14,10.0,NNE,9.2,-,N/A,,Mostly Cloudy,30,2013-08-24 11:54:00
8:54 AM,72.0,63.0,73,30.16,10.0,NNE,16.1,21.9,N/A,,Clear,30,2013-08-24 12:54:00
9:54 AM,75.0,64.0,69,30.18,10.0,NE,10.4,-,N/A,,Clear,40,2013-08-24 13:54:00
10:54 AM,78.1,64.0,62,30.20,10.0,NE,11.5,17.3,N/A,,Partly Cloudy,40,2013-08-24 14:54:00
11:54 AM,80.1,64.0,58,30.20,10.0,NE,13.8,19.6,N/A,,Clear,40,2013-08-24 15:54:00
12:54 PM,81.0,63.0,54,30.19,10.0,NE,10.4,-,N/A,,Clear,40,2013-08-24 16:54:00
1:54 PM,81.0,63.0,54,30.19,10.0,ENE,8.1,17.3,N/A,,Scattered Clouds,60,2013-08-24 17:54:00
2:54 PM,81.0,61.0,50,30.19,10.0,ENE,9.2,-,N/A,,Scattered Clouds,60,2013-08-24 18:54:00
3:54 PM,82.9,61.0,47,30.18,10.0,NE,12.7,19.6,N/A,,Partly Cloudy,50,2013-08-24 19:54:00
4:54 PM,82.9,60.1,46,30.18,10.0,NE,12.7,18.4,N/A,,Partly Cloudy,50,2013-08-24 20:54:00
5:54 PM,81.0,61.0,50,30.18,10.0,ENE,9.2,-,N/A,,Clear,60,2013-08-24 21:54:00
6:54 PM,80.1,61.0,52,30.18,10.0,NE,10.4,-,N/A,,Scattered Clouds,50,2013-08-24 22:54:00
7:54 PM,75.9,63.0,64,30.20,10.0,NE,3.5,-,N/A,,Clear,40,2013-08-24 23:54:00
8:54 PM,73.0,64.9,76,30.22,10.0,NNE,4.6,-,N/A,,Clear,30,2013-08-25 00:54:00
9:54 PM,72.0,64.9,78,30.24,10.0,NNE,3.5,-,N/A,,Scattered Clouds,20,2013-08-25 01:54:00
10:54 PM,73.0,64.0,73,30.25,10.0,ENE,6.9,-,N/A,,Mostly Cloudy,70,2013-08-25 02:54:00
11:54 PM,72.0,63.0,73,30.26,10.0,ENE,4.6,-,N/A,,Scattered Clouds,60,2013-08-25 03:54:00